Flag for Germany Weather past 2 weeks in Maintal, Hesse, Germany

Now
44 °F

Sprinkles. Passing clouds.


Feels Like: 40 °F
Forecast: 40 / 44 °F
Wind: 6 mph from West

Location: Frankfurt / M-Flughafen

Current Time: Dec 20, 2014 at 9:30:09 PM

Latest Report: Dec 20, 2014 at 9:00 PM


Visibility: 9 mi

Pressure: 30.28 "Hg

Humidity: 80%

Dew point: 38 °F

Location of MaintalLocation

Historic Weather in Maintal — Graph

°F

Maintal temperature yesterday

Maximum temperature yesterday: 55 °F (at 12:00 AM)
Minimum temperature yesterday: 44 °F (at 11:00 PM)
Average temperature yesterday: 52 °F

Past Weeks' High & Low Weather Summary

 TemperatureHumidityPressure
High57 °F (Dec 18, 9:00 PM)100% (Dec 6, 5:00 AM)30.46 "Hg (Dec 6, 5:00 AM)
Low29 °F (Dec 8, 11:00 PM)67% (Dec 12, 8:00 PM)29.62 "Hg (Dec 12, 6:00 PM)
Average41 °F90%30.05 "Hg
* Reported Dec 5 8:00 PM — Dec 20 8:00 PM, Maintal, Weather by CustomWeather, © 2014

Note: Actual official high and low records may vary slightly from our data, if they occured in-between our weather recording intervals... More about our weather records

Advertising

Maintal weather history for previous 24 hours

 ConditionsComfort  
Time TempWeatherWind HumidityBarometerVisibility
8:00 PM
Dec 20
44 °FPassing clouds.9 mph72%30.23 "Hg25 mi
7:00 PM45 °FOvercast.10 mph70%30.20 "Hg17 mi
6:00 PM45 °FOvercast.12 mph70%30.18 "Hg17 mi
5:00 PM45 °FOvercast.10 mph71%30.16 "Hg17 mi
4:00 PM44 °FOvercast.9 mph75%30.16 "Hg17 mi
3:00 PM44 °FOvercast.9 mph80%30.16 "Hg17 mi
2:00 PM44 °FLight rain. Overcast.9 mph80%30.17 "Hg15 mi
1:00 PM43 °FSprinkles. Overcast.9 mph83%30.19 "Hg14 mi
12:00 PM44 °FSprinkles. Overcast.8 mph75%30.21 "Hg19 mi
11:00 AM42 °FOvercast.9 mph77%30.23 "Hg25 mi
9:00 AM39 °FPartly sunny.6 mph84%30.26 "Hg25 mi
8:00 AM36 °FPassing clouds.8 mph91%30.26 "Hg25 mi
7:00 AM36 °FPassing clouds.7 mph90%30.26 "Hg25 mi
6:00 AM38 °FPassing clouds.8 mph84%30.25 "Hg25 mi
5:00 AM39 °FPassing clouds.7 mph84%30.24 "Hg25 mi
3:00 AM41 °FPassing clouds.6 mph80%30.23 "Hg25 mi
2:00 AM42 °FPassing clouds.3 mph77%30.21 "Hg25 mi
1:00 AM43 °FPassing clouds.3 mph74%30.20 "Hg25 mi
12:00 AM44 °FPassing clouds.3 mph70%30.19 "Hg25 mi
11:00 PM
Dec 19
44 °FPassing clouds.2 mph71%30.15 "Hg25 mi
9:00 PM47 °FPassing clouds.6 mph72%30.09 "Hg25 mi
Weather by CustomWeather, © 2014

See weather overviewHow to use our weather pages